Date,TemperatureHighF,TemperatureAvgF,TemperatureLowF,DewpointHighF,DewpointAvgF,DewpointLowF,HumidityHigh,HumidityAvg,HumidityLow,PressureMaxIn,PressureMinIn,WindSpeedMaxMPH,WindSpeedAvgMPH,GustSpeedMaxMPH,PrecipitationSumIn
2013-10-1,66.6,52.7,39.9,45.5,36.6,28.2,89,56,35,29.84,29.68,7,2,13,0.00
2013-10-2,69.6,50.6,34.0,40.7,33.7,22.3,93,60,18,29.87,29.75,9,3,15,0.00
2013-10-3,62.7,46.7,34.9,41.5,36.8,26.1,95,72,26,29.77,29.54,7,2,12,0.29
2013-10-4,40.7,33.9,29.0,39.4,23.6,10.0,95,68,42,30.16,29.60,15,5,27,0.20
2013-10-5,47.1,38.8,30.2,14.7,9.4,-1.2,52,31,15,30.28,30.13,22,13,38,0.00
2013-10-6,63.9,51.1,38.6,33.5,23.9,0.9,75,35,16,30.24,30.06,16,6,26,0.00
2013-10-7,69.1,58.9,44.9,24.2,16.4,6.6,37,20,9,30.06,29.71,15,7,26,0.00
2013-10-8,68.7,57.4,38.3,31.3,20.4,9.6,69,27,13,29.71,29.48,19,8,31,0.00
2013-10-9,61.0,49.3,37.8,39.4,33.3,25.9,83,56,32,29.82,29.59,9,2,15,0.00
2013-10-10,52.2,43.2,35.9,43.1,35.1,25.2,93,74,49,29.79,29.41,16,4,28,0.03
2013-10-11,48.3,42.8,34.7,29.9,27.2,22.2,66,54,41,29.96,29.40,29,12,42,0.00
2013-10-12,52.6,38.5,27.8,36.0,29.5,20.6,94,73,32,30.14,29.96,7,2,17,0.00
2013-10-13,59.0,41.1,26.1,40.3,31.7,24.2,95,73,32,30.16,29.85,6,1,11,0.00
2013-10-14,47.6,40.6,33.2,34.9,30.3,24.5,92,68,47,30.06,29.69,14,5,23,0.02
2013-10-15,36.7,30.5,27.2,30.8,26.7,24.2,95,86,67,30.26,30.06,5,2,10,0.00
2013-10-16,45.5,34.7,19.7,24.2,17.5,9.6,95,55,27,30.23,30.09,13,6,21,0.00
2013-10-17,45.4,36.3,29.6,29.5,23.0,13.2,93,61,36,30.11,29.94,14,5,27,0.00
2013-10-18,38.5,31.6,20.6,27.7,18.6,11.6,95,63,37,30.22,30.00,14,5,24,0.17
2013-10-19,51.8,42.9,35.4,22.5,18.1,15.0,47,37,26,30.18,29.86,17,11,29,0.00
2013-10-20,45.6,37.8,26.1,32.4,25.4,19.5,95,65,36,30.08,29.81,16,4,28,0.00
2013-10-21,48.3,35.6,19.8,30.8,22.5,17.9,95,64,37,30.27,30.07,15,5,26,0.05
2013-10-22,57.0,49.1,42.6,28.9,24.5,22.2,45,38,32,30.22,30.00,11,7,20,0.00
2013-10-23,60.8,47.8,29.0,33.5,26.0,19.8,88,46,21,30.10,29.93,10,4,17,0.00
2013-10-24,59.7,38.2,22.8,35.3,25.8,20.9,93,67,25,30.26,30.10,6,1,11,0.00
2013-10-25,63.6,40.4,24.0,34.3,25.1,20.2,92,61,20,30.28,30.10,8,1,14,0.00
2013-10-26,58.3,39.1,23.5,34.4,26.6,16.7,92,65,26,30.34,30.17,12,1,17,0.00
2013-10-27,57.5,48.6,34.4,25.3,21.9,15.8,64,36,24,30.17,29.75,13,6,20,0.00
2013-10-28,36.0,30.8,26.5,30.4,26.4,23.0,94,84,62,30.02,29.78,4,2,8,0.00
2013-10-29,50.5,33.8,24.5,34.9,27.1,21.5,94,80,32,30.05,29.87,9,2,14,0.03
2013-10-30,41.2,35.8,32.1,31.0,21.9,15.4,95,58,42,29.88,29.75,24,9,35,0.00
2013-10-31,41.1,35.4,32.3,24.9,17.8,12.8,65,49,39,29.93,29.78,23,13,36,0.00